Home   Weather   Springfield   Past weeks

Flag for USA Past Weather in Springfield, Missouri, USA — Yesterday and Last 2 Weeks

Now
47 °F

Sunny.


Feels Like: 44 °F
Forecast: 39 / 64 °F
Wind: 6 mph from Northwest

Location: Springfield Regional Airport

Current Time: Apr 27, 2017 at 10:00:21 am

Latest Report: Apr 27, 2017 at 8:52 am


Visibility: 10 mi

Pressure: 29.76 "Hg

Humidity: 77%

Dew Point: 40 °F

Location of SpringfieldLocation

Past Weather in Springfield — Graph

°F

Springfield Temperature Yesterday

Maximum temperature yesterday: 69 °F (at 12:52 am)
Minimum temperature yesterday: 45 °F (at 6:52 pm)
Average temperature yesterday: 52 °F

High & Low Weather Summary for the Past Weeks

 TemperatureHumidityPressure
High81 °F (Apr 14, 3:52 pm)97% (Apr 17, 3:52 am)30.30 "Hg (Apr 17, 3:52 am)
Low39 °F (Apr 24, 5:52 am)21% (Apr 24, 2:52 pm)29.39 "Hg (Apr 25, 3:52 pm)
Average61 °F74%29.94 "Hg
* Reported Apr 12 8:52 am — Apr 27 8:52 am, Springfield, Weather by CustomWeather, © 2017

Note: Actual official high and low records may vary slightly from our data, if they occured in-between our weather recording intervals... More about our weather records

Advertising

Springfield Weather History for the Previous 24 Hours

Scroll right to see more
 ConditionsComfort  
Time TempWeatherWind HumidityBarometerVisibility
8:52 am
Thu, Apr 27
47 °FSunny.6 mph77%29.76 "Hg10 mi
7:52 am44 °FSunny.7 mph79%29.76 "Hg10 mi
6:52 am41 °FSunny.7 mph89%29.75 "Hg10 mi
5:52 am42 °FPassing clouds.6 mph85%29.72 "Hg10 mi
4:52 am43 °FOvercast.10 mph86%29.69 "Hg10 mi
3:52 am43 °FOvercast.8 mph89%29.69 "Hg10 mi
2:52 am43 °FOvercast.8 mph93%29.67 "Hg10 mi
2:34 am43 °FPassing clouds.7 mph93%29.66 "Hg10 mi
2:11 am44 °FPassing clouds.7 mph89%29.66 "Hg10 mi
1:52 am45 °FPassing clouds.13 mph90%29.67 "Hg10 mi
1:04 am45 °FLow clouds.9 mph93%29.67 "Hg9 mi
12:38 am45 °FPassing clouds.9 mph93%29.67 "Hg10 mi
11:52 pm
Wed, Apr 26
45 °FMostly cloudy.9 mph93%29.67 "Hg10 mi
11:43 pm45 °FMostly cloudy.12 mph93%29.67 "Hg10 mi
10:52 pm45 °FLight rain. Low clouds.12 mph93%29.67 "Hg10 mi
9:52 pm45 °FLow clouds.10 mph93%29.64 "Hg10 mi
8:52 pm45 °FMostly cloudy.14 mph93%29.59 "Hg10 mi
7:52 pm45 °FLow clouds.13 mph93%29.56 "Hg9 mi
6:52 pm45 °FFog.15 mph93%29.56 "Hg2 mi
6:10 pm46 °FFog.9 mph96%29.57 "Hg4 mi
5:57 pm46 °FFog.13 mph93%29.55 "Hg3 mi
4:52 pm48 °FLight rain. Fog.8 mph96%29.52 "Hg3 mi
4:34 pm48 °FLight rain. Fog.10 mph93%29.53 "Hg4 mi
4:18 pm48 °FLight rain. Fog.12 mph93%29.52 "Hg2 mi
4:08 pm48 °FLight rain. Fog.12 mph93%29.54 "Hg3 mi
3:37 pm48 °FFog.12 mph93%29.54 "Hg2 mi
2:52 pm49 °FMostly cloudy.15 mph93%29.52 "Hg10 mi
2:25 pm49 °FRain. Fog.20 mph93%29.49 "Hg3 mi
1:52 pm49 °FFog.13 mph97%29.53 "Hg2 mi
1:08 pm50 °FFog.12 mph96%29.55 "Hg3 mi
12:58 pm50 °FFog.13 mph96%29.56 "Hg2 mi
12:31 pm50 °FLight rain. Low clouds.12 mph96%29.55 "Hg10 mi
11:59 am50 °FLight rain. Low clouds.9 mph96%29.58 "Hg9 mi
11:36 am51 °FThunderstorms. Fog.10 mph96%29.52 "Hg6 mi
11:04 am52 °FLight rain. Low clouds.10 mph97%29.58 "Hg10 mi
10:52 am53 °FThunderstorms. Mostly cloudy.10 mph96%29.52 "Hg10 mi
Weather by CustomWeather, © 2017

See weather overviewHow to use our weather pages